User: anonymous   Login
Location: Stamford Observatory
(41.1241°N, 73.5498°W)
Time: 07:03:46
(UTC-05:00)
Language:

IRS-P3 - Orbit

View from above orbital plane
View from above orbital plane
View from above satellite
View from above satellite

Ground track
Ground track

The orbit data is extracted from the following two-line orbital elements,

1 23827U 96017A   14327.22126794  .00000192  00000-0  10574-3 0  1584
2 23827 098.6391 262.9987 0002789 210.9605 278.3144 14.22267007969219
Epoch (UTC): 23 November 2014 05:18:37
Eccentricity: 0.0002789
inclination: 98.6391°
perigee height: 815 km
apogee height: 820 km
right ascension of ascending node: 262.9987°
argument of perigee: 210.9605°
revolutions per day: 14.22267007
mean anomaly at epoch: 278.3144°
orbit number at epoch: 96921

The dashed part of the orbit path shows where the satellite is in the earth's shadow,  

DLR